Back to catalog

ATLAS 5 CENTAUR DEB

AliveHEO
NORAD 44644·DEBRIS·🇺🇸 United States

Launched Oct 17, 2018 from Cape Canaveral Space Force Station

Loading…

Next Passes (next 24 hours)

TLE

FreshSource: Space-Track

Epoch: Sep 14, 2026, 11:45 UTC

1 44644U 18079E   26257.48985554 -.00000150  00000-0  00000-0 0  9994
2 44644  13.2239  12.0751 4533605  14.9032 354.8608  1.94048454 52724

Track ATLAS 5 CENTAUR DEB in real time with AllMySat

Download on the App Store